Home   Weather   Gaziantep   Past weeks

Flag for Turkey Past Weather in Gaziantep, Turkey — Yesterday and Last 2 Weeks

Now
39 °F

Sunny.


Feels Like: 32 °F
Forecast: 22 / 47 °F
Wind: 10 mph from North

Location: Gaziantep Airport

Current Time: Dec 8, 2016 at 9:18:21 am

Latest Report: Dec 8, 2016 at 8:20 am


Visibility: 10 mi

Pressure: 30.33 "Hg (27.29 "Hg at 856m altitude)

Humidity: 52%

Dew Point: 23 °F

Location of GaziantepLocation

Past Weather in Gaziantep — Graph

°F

Gaziantep Temperature Yesterday

Maximum temperature yesterday: 48 °F (at 1:50 pm)
Minimum temperature yesterday: 23 °F (at 5:50 am)
Average temperature yesterday: 35 °F

High & Low Weather Summary for the Past Weeks

 TemperatureHumidityPressure
High61 °F (Nov 23, 1:20 pm)100% (Dec 1, 11:20 am)30.36 "Hg (Dec 1, 11:20 am)
Low21 °F (Nov 27, 4:50 am)11% (Nov 23, 4:50 pm)29.53 "Hg (Dec 2, 3:50 am)
Average41 °F65%30.14 "Hg
* Reported Nov 23 7:20 am — Dec 8 7:50 am, Gaziantep, Weather by CustomWeather, © 2016

Note: Actual official high and low records may vary slightly from our data, if they occured in-between our weather recording intervals... More about our weather records

Advertising

Gaziantep Weather History for the Previous 24 Hours

Scroll right to see more
 ConditionsComfort  
Time TempWeatherWind HumidityBarometerVisibility
7:50 am
Thu, Dec 8
37 °FSunny.9 mph56%30.30 "Hg10 mi
7:20 am36 °FPassing clouds.7 mph60%30.30 "HgN/A
6:50 am36 °FClear.7 mph60%30.30 "Hg10 mi
6:20 am36 °FClear.9 mph60%30.27 "Hg10 mi
5:20 am36 °FClear.7 mph60%30.27 "Hg10 mi
4:50 am36 °FClear.5 mph60%30.27 "Hg10 mi
4:20 am36 °FClear.5 mph65%30.27 "Hg10 mi
3:50 am36 °FClear.5 mph60%30.27 "Hg10 mi
3:20 am36 °FClear.5 mph60%30.27 "Hg10 mi
2:50 am39 °FClear.5 mph52%30.27 "Hg10 mi
2:20 am34 °FClear.5 mph70%30.27 "Hg10 mi
1:50 am36 °FClear.5 mph65%30.27 "Hg10 mi
1:20 am32 °FClear.No wind75%30.27 "Hg10 mi
12:50 am34 °FClear.6 mph75%30.27 "Hg10 mi
12:20 am36 °FClear.5 mph70%30.27 "Hg10 mi
11:50 pm
Wed, Dec 7
34 °FClear.2 mph75%30.27 "Hg10 mi
11:20 pm32 °FPassing clouds.3 mph80%30.27 "HgN/A
10:50 pm32 °FClear.3 mph87%30.27 "Hg10 mi
10:20 pm30 °FClear.2 mph93%30.27 "Hg10 mi
9:50 pm32 °FClear.2 mph87%30.27 "Hg10 mi
9:20 pm37 °FClear.2 mph75%30.27 "Hg10 mi
8:50 pm36 °FClear.2 mph87%30.27 "Hg10 mi
8:20 pm37 °FClear.2 mph81%30.27 "Hg10 mi
7:50 pm36 °FClear.2 mph81%30.24 "Hg10 mi
7:20 pm39 °FClear.2 mph75%30.24 "Hg10 mi
6:50 pm39 °FClear.2 mph75%30.24 "Hg10 mi
6:20 pm43 °FClear.2 mph66%30.21 "Hg10 mi
5:50 pm43 °FClear.2 mph61%30.21 "Hg10 mi
5:20 pm45 °FClear.2 mph57%30.21 "Hg10 mi
4:50 pm46 °FSunny.1 mph57%30.18 "Hg10 mi
4:20 pm46 °FSunny.5 mph57%30.18 "Hg10 mi
3:50 pm48 °FSunny.6 mph50%30.18 "Hg10 mi
2:50 pm48 °FPassing clouds.5 mph50%30.18 "HgN/A
2:20 pm48 °FPassing clouds.3 mph50%30.18 "HgN/A
1:50 pm48 °FPassing clouds.3 mph46%30.21 "HgN/A
1:20 pm46 °FPassing clouds.3 mph46%30.21 "HgN/A
12:50 pm46 °FPassing clouds.5 mph50%30.21 "HgN/A
12:20 pm46 °FPassing clouds.5 mph46%30.24 "HgN/A
11:50 am46 °FSunny.2 mph43%30.24 "Hg10 mi
11:20 am45 °FSunny.1 mph46%30.24 "Hg10 mi
10:50 am43 °FSunny.No wind53%30.24 "Hg10 mi
10:20 am41 °FSunny.No wind53%30.27 "Hg10 mi
9:50 am37 °FSunny.No wind70%30.27 "Hg10 mi
9:20 am34 °FSunny.1 mph81%30.27 "Hg10 mi
Weather by CustomWeather, © 2016

See weather overviewHow to use our weather pages